Погода в Якутске

Погода в Якутске : погода сейчас, прогноз погоды и архив. Всё, что Вы хотите узнать о погоде в Якутске!

Хотите узнать прогноз погоды в Якутске? Тогда Вам сюда: Погода в Якутске

Поиск расширенной информации на нашем сайте:

Другие новости

Новости СМИ2

Главная страница сайта

Новости сайта

02.10.2013

Напоминаем, что на нашем новом сайте вы можете получить высокодетализированные прогнозы погоды по пунктам России, СНГ и мира (включающие важные для авиации метеовеличины, такие как направление и скорость ветра, видимость, явления погоды, количество и форма облачности, нижняя и верхняя граница облачности), а также ознакомиться с разнообразными материалами по авиационной метеорологии и подборкой полезных ссылок на эту тему.

Сайт Метеоцентр.Азия посвящён разработке технологий оптимизации авиаметеорологического обслуживания, включая проектирование и перспективное создание нескольких автоматизированных авиаметеорологических систем:
- система выпуска высокодетальных прогностических карт явлений погоды для нижнего воздушного пространства по России и ближнему зарубежью;
- система верификации прогнозов TAF (выпускаемых синоптиками официальных АМСГ РФ и ближнего зарубежья) и AUTOTAF (выпускаемых сайтом Метеоцентр.Азия) - выявление ошибок, онлайн-сопоставление с фактической погодой METAR, автоматическое внесение коррективов в прогнозы при резком отклонении фактической погоды от прогноза, подсчёт оправдываемости прогнозов по элементам и в целом;
- система обработки, анализа и отображения авиаметеорологической информации для применения провайдерами метеорологической информации.


Погода в Якутске - сегодня

Время (UTC), дата Ветер
(°,м/с) 
Видим.   Явления Облачность Т
(°С)
Тd
(°С)
f(%) Тe
(°С)
Pmin
(гПа)
dP
(гПа)
Po
(мм)
O2
(г/м3)
Тmin Tmax R s Состояние
почвы
21 23.06.17 200 (Ю) 10 км  дым  10/0 средняя, верхняя 
[Ac trans|Cs]
+20.6 +16.1 75 +32  1000  741  274           
00 24.06.17 180 (Ю) 10 км  дым  8/0 верхняя 
[Cs]
+27.2 +17 54 +40  1000.4  0.7  742  268  +18.1        сухая 
03 24.06.17 350 (С) 20000 м    10/5 600 м верхняя 
[Cu hum|Ci fib]
+31.2 +13.4 34 +37  1000.7  0.4  742  266           
06 24.06.17 350 (С) 4{10}  20000 м    10/5 600 м кучево-дожд., верхняя 
[Cb cap|Ci fib]
+29.9 +14.5 39 +38  1001.5  0.7  743  267           
09 24.06.17 350 (С) 2{10}  20000 м    10/3 600 м средняя, верхняя 
[Cu med, cong|Ac trans|Ci fib]
+27.2 +13.5 43 +34  1003.2  1.6  744  270           
12 24.06.17 330 (СЗ) 20000 м    10/1 600 м средняя, верхняя 
[Cu med, cong|Ac trans|Ci fib]
+22 +12.4 54 +27  1005.1  1.7  745  275    +31.3       
15 24.06.17 350 (С) 20000 м    8/0 средняя, верхняя 
[Ac trans|Ci fib]
+17.1 +11.2 68 +21  1006.6  1.3  746  281           
18 24.06.17 330 (СЗ) 20000 м    8/0 средняя, верхняя 
[Ac trans|Ci fib]
+14 +10 77 +16  1007.8  747  284           
21 24.06.17 350 (С) 20000 м    10/5 600 м средняя, верхняя 
[Sc|Ac trans|Ci fib]
+15.3 +10.3 72 +18  1008.2  0.5  747  283           
00 25.06.17 020 (С) 20000 м    9/0 средняя, верхняя 
[Ac trans|Ci fib]
+20.2 +10 52 +21  1008.9  0.9  748  279  +13.5        сухая 
03 25.06.17 050 (СВ) 20000 м    4/3 1000 м верхняя 
[Cu hum|Ci fib]
+24 +10.7 43 +26  1008.3  -0.5  748  275           
06 25.06.17 060 (СВ) 20000 м    4/3 1000 м верхняя 
[Cu hum|Ci fib]
+25.5 +9.7 37 +26  1007.3  -0.9  747  274           
09 25.06.17 040 (СВ) 20000 м    5/0 верхняя 
[Ci fib]
+26.1 +6 28 +26  1007.2  -0.1  747  274           
12 25.06.17 тихо ()   20000 м    1/0 верхняя 
[Ci fib]
+24.5 +5.1 29 +25  1007.6  0.3  747  275    +26.2       
15 25.06.17 тихо ()   20000 м    3/0 верхняя 
[Ci fib]
+12.8 +5.9 63 +13  1008.6  0.6  747  287           
18 25.06.17 350 (С) 20000 м    3/0 верхняя 
[Ci fib]
+9.4 +4.2 70 +10  1009  0.2  748  291           
21 25.06.17 тихо ()   20000 м    3/0 верхняя 
[Ci fib]
+17.8 +7 49 +18  1009.5  0.8  748  282           
00 26.06.17 160 (Ю) 20000 м    3/0 верхняя 
[Ci fib]
+23.2 +6.1 33 +23  1008.9  -0.4  748  277  +8.5        сухая 
03 26.06.17 090 (В) 20000 м    8/0 верхняя 
[Ci fib]
+27.2 +3.9 22 +27  1007.6  -1.2  747  273           
06 26.06.17 090 (В) 20000 м    3/0 верхняя 
[Ci fib]
+29.3 +2.7 18 +29  1005.8  -1.7  746  271           
09 26.06.17 110 (В) 20000 м    4/0 верхняя 
[Ci fib]
+29.6 +4.5 20 +30  1004.5  -1.2  745  270           
12 26.06.17 110 (В) 20000 м    3/0 средняя, верхняя 
[Ac trans|Ci fib]
+26.5 +5.8 27 +27  1004.5  -0.1  745  273    +29.9       
15 26.06.17 250 (З) 20000 м    ясно 
+16.4 +7.5 56 +18  1005.4  0.4  745  282           
18 26.06.17 тихо ()   20000 м    ясно 
+11.9 +7.4 74 +12  1006.3  0.8  746  287           
21 26.06.17 140 (ЮВ) 20000 м    ясно 
+19.9 +11.6 59 +24  1006.2  0.3  746  278           
Время (UTC), дата Ветер
(°,м/с) 
Видим.   Явления Облачность Т
(°С)
Тd
(°С)
f(%) Тe
(°С)
Pmin
(гПа)
dP
(гПа)
Po
(мм)
O2
(г/м3)
Тmin Tmax R s Состояние
почвы

Для получения пояснительной информации подведите курсор к названию столбца.

ПОГОДА в Якутске - архив

Всё, что Вы хотите узнать о погоде в Якутске - удобно и подробно!

Выберите нужную дату (начиная с 1 января 2015* года) и нажмите кнопку "Найти".
Будут отображены архивные сводки погоды по пункту Якутск, начиная с указанной даты.


Отображать данные в формате CSV (для использования в таблицах Excel)


Внимание! Наш архив погоды предназначен исключительно для личного некоммерческого использования в познавательных целях. Если Вам необходимы официальные справки о состоянии погоды (для производственных, юридических, коммерческих и т.п. целей), обращайтесь в органы Росгидромета.

*Примечание: данная дата относится к архиву по метеостанциям СССР (Россия, СНГ, Балтия).
Архив по метеостанциям Зарубежной Европы и Азии (кроме Китая) хранится 10 дней, по другим регионам земного шара (Китай, Африка, Америка, Австралия, Океания) - 1 день.

Якутск - район местоположения метеостанции


Название, широта, долгота, высота метеостанции:
Якутск 62°ш. 129.7°д. 101 м над ур. моря [Российская Федерация]

Дополнительная информация

В oтличие oт бoльшинства пoгoдных сайтoв мы публикуем пoдрoбную метеoинфoрмацию в детальнoм прoфессиoнальнoм фoрмате.

Характеристики температуры и влажнoсти вoздуха измеряются на высoте 2 м в тени вдали oт зданий и деревьев.
Скoрoсть ветра измеряется на высoте 10 м (на урoвне рoста челoвека скoрoсть ветра ниже в 1.5-2 раза). Если метеoстанция нахoдится в гoрoде или в лесу, тo скoрoсть ветра занижена на 2-4 м/с пo сравнению с oткрытым местoм. Скoрoсть ветра над акватoриями крупных рек и oзёр, а также на вершинах хoлмoв на 2-5 м/с выше, чем в oбычных услoвиях.
Атмoсфернoе давление в разных тoчках местнoсти мoжет значительнo oтличаться oт давления на метеoстанции, в зависимoсти oт услoвий рельефа (при пoдъёме на 10 м давление пoнижается примернo на 1 мм рт.ст.).